Location: Eastlake (historical)
(39.0077°N, 122.6678°W)
Time: 12:49:05
(UTC+00:00)

Meteor PRIRODA - Pass Details

Date: 25 November 2020
Orbit: 489 x 510 km, 97.6° (Epoch: 25 January)

Event Time Altitude Azimuth Distance (km) Brightness Sun altitude
Rises 13:44:32 0° 7° (N) 2,627 7.2 -15.5°
Reaches altitude 10° 13:46:40 10° 3° (N) 1,738 6.2 -15.1°
Maximum altitude 13:50:20 54° 285° (WNW) 625 3.7 -14.4°
Drops below altitude 10° 13:53:58 10° 208° (SSW) 1,725 6.2 -13.7°
Sets 13:56:04 0° 203° (SSW) 2,605 7.2 -13.3°
